Simultaneous Nadir Overpasses (SNOs) Predictions

Prediction of SNOs near US between AQUA and NPP Satellite Orbit:

Table of predicted SNOs near US for the next 10.0 days since TLE Epoch: 8/20/2022
Index Date (AQUA) Time (AQUA) AQUA Lat,Lon Date (NPP) Time (NPP) NPP Lat,Lon Distance(km) Time Diff (sec)
1 08/20/2022 08:43:51 26.84,-101.79 08/20/2022 08:37:24 27.18,-103.49 172.14 387
2 08/20/2022 10:20:10 36.03,-124.04 08/20/2022 10:16:16 36.40,-126.24 201.67 234
3 08/28/2022 07:51:41 29.51, -88.22 08/28/2022 07:45:58 29.83, -90.10 185.69 343
4 08/28/2022 09:28:01 38.63,-110.37 08/28/2022 09:24:50 39.04,-112.73 209.80 191
